Tracking 21612 objects as of 22-Oct-2020
HD Live streaming from Space Station
objects crossing your sky now

STARLINK-1732

Track STARLINK-1732 now!
10-day predictions
STARLINK-1732 is classified as:


NORAD ID: 46584
Int'l Code: 2020-070BE
Perigee: 357.7 km
Apogee: 359.3 km
Inclination: 53.0 °
Period: 91.6 minutes
Semi major axis: 6729 km
RCS: Unknown
Launch date: October 6, 2020
Source: United States (US)
Launch site: AIR FORCE EASTERN TEST RANGE (AFETR)
aabbcc
Your satellite tracking list
Your tracking list is empty




NASA's NSSDC Master Catalog

Two Line Element Set (TLE):
1 46584U 20070BE  20296.16667824 -.01102018  00000-0 -89792-2 0  9997
2 46584  52.9898   4.8745 0001219  57.4603 215.4769 15.72646971  2987
Source of the keplerian elements: AFSPC